TimeAKDT,TemperatureF,Dew PointF,Humidity,Sea Level PressureIn,VisibilityMPH,Wind Direction,Wind SpeedMPH,Gust SpeedMPH,PrecipitationIn,Events,Conditions,WindDirDegrees,DateUTC
12:53 AM,53.1,39.9,61,29.76,10.0,SSE,16.1,-,N/A,,Partly Cloudy,150,2013-08-20 08:53:00
1:53 AM,52.0,41.0,66,29.76,10.0,SSE,16.1,-,N/A,,Partly Cloudy,160,2013-08-20 09:53:00
2:53 AM,52.0,41.0,66,29.76,10.0,SSE,19.6,24.2,N/A,,Overcast,160,2013-08-20 10:53:00
3:53 AM,52.0,42.1,69,29.77,10.0,SSE,15.0,-,0.00,,Overcast,160,2013-08-20 11:53:00
4:53 AM,51.1,42.1,71,29.77,10.0,SSE,16.1,21.9,0.00,,Overcast,160,2013-08-20 12:53:00
5:53 AM,50.0,43.0,77,29.79,10.0,SSE,16.1,-,0.00,Rain,Light Rain,160,2013-08-20 13:53:00
6:53 AM,50.0,44.1,80,29.80,10.0,SSE,16.1,26.5,0.00,,Mostly Cloudy,160,2013-08-20 14:53:00
7:53 AM,50.0,44.1,80,29.80,10.0,SSE,17.3,25.3,N/A,,Partly Cloudy,160,2013-08-20 15:53:00
8:53 AM,50.0,44.1,80,29.82,10.0,SSE,17.3,27.6,0.00,Rain,Light Rain,160,2013-08-20 16:53:00
9:53 AM,51.1,43.0,74,29.83,10.0,SSE,17.3,25.3,0.00,,Scattered Clouds,160,2013-08-20 17:53:00
10:53 AM,52.0,42.1,69,29.83,10.0,SSE,20.7,29.9,N/A,,Clear,160,2013-08-20 18:53:00
11:53 AM,52.0,42.1,69,29.84,10.0,SSE,21.9,29.9,N/A,,Partly Cloudy,150,2013-08-20 19:53:00
12:53 PM,54.0,42.1,64,29.83,10.0,SSE,19.6,39.1,N/A,,Clear,160,2013-08-20 20:53:00
1:53 PM,54.0,42.1,64,29.83,10.0,SSE,19.6,29.9,N/A,,Mostly Cloudy,150,2013-08-20 21:53:00
2:53 PM,55.0,42.1,62,29.84,10.0,SSE,19.6,29.9,N/A,,Clear,150,2013-08-20 22:53:00
3:53 PM,54.0,42.1,64,29.84,10.0,SSE,19.6,31.1,N/A,,Mostly Cloudy,150,2013-08-20 23:53:00
4:53 PM,54.0,42.1,64,29.84,10.0,SSE,15.0,-,N/A,,Overcast,150,2013-08-21 00:53:00
5:53 PM,54.0,41.0,62,29.84,10.0,SSE,17.3,26.5,0.00,,Overcast,150,2013-08-21 01:53:00
6:53 PM,54.0,41.0,62,29.83,10.0,SSE,21.9,31.1,N/A,,Partly Cloudy,160,2013-08-21 02:53:00
7:53 PM,53.1,41.0,64,29.82,10.0,SSE,21.9,31.1,N/A,,Overcast,150,2013-08-21 03:53:00
8:53 PM,52.0,41.0,66,29.82,10.0,SSE,20.7,32.2,N/A,,Overcast,160,2013-08-21 04:53:00
9:53 PM,51.1,41.0,68,29.83,10.0,SSE,18.4,28.8,N/A,,Overcast,160,2013-08-21 05:53:00
10:53 PM,52.0,41.0,66,29.83,10.0,SSE,18.4,25.3,N/A,,Overcast,160,2013-08-21 06:53:00
11:53 PM,51.1,41.0,68,29.83,10.0,South,19.6,29.9,N/A,,Overcast,170,2013-08-21 07:53:00